Regional Weather Roundup
Issued by NWS

Home | Current Version | Previous Version | Text Only | Print | Product List | Glossary On
Versions: 1 2 3 4 5 6 7 8 9 10 11 12 13 14 15 16 17 18 19 20 21 22 23 24 25 26 27 28 29 30 31 32 33 34 35 36 37 38 39 40 41 42 43 44 45 46 47 48 49 50
000
ASUS43 KDTX 210410
RWRMI
MICHIGAN HOURLY REGIONAL WEATHER ROUNDUP
NATIONAL WEATHER SERVICE DETROIT/PONTIAC MI
1200 AM EDT SAT APR 21 2018

NOTE: "FAIR" INDICATES FEW OR NO CLOUDS BELOW 12,000 FEET WITH NO
SIGNIFICANT WEATHER AND/OR OBSTRUCTION TO VISIBILITY.

MIZ047>049-052>055-059>063-066>070-074>076-081>083-210500-
SOUTHEAST LOWER MICHIGAN

CITY           SKY/WX    TMP DP  RH WIND       PRES   REMARKS
ADRIAN         FAIR      41  26  55 E3        30.46S
ALMA           FAIR      37  30  75 W6        30.44S WCI  32
ANN ARBOR      FAIR      36  24  62 CALM      30.45S
BAD AXE        FAIR      33  24  68 CALM      30.47F
CARO           FAIR      36  23  59 E5        30.45F WCI  32
DETROIT CITY   FAIR      38  24  57 E5        30.47S WCI  34
DETROIT        FAIR      43  28  55 E5        30.47R
FLINT          FAIR      40  22  48 S7        30.45R
GROSSE ILE     FAIR      37  28  69 CALM      30.46S
HILLSDALE      FAIR      41  19  42 E7        30.43S
HOWELL         FAIR      39  23  52 SE3       30.44S

CITY           SKY/WX    TMP DP  RH WIND       PRES   REMARKS
JACKSON        FAIR      44  22  41 SE8       30.44S
LAMBERTVILLE   FAIR      40  30  66 CALM      30.45S
LANSING        FAIR      43  27  53 CALM      30.45S
LAPEER         FAIR      36  25  64 CALM      30.46S
MASON          FAIR      45  16  31 SE7       30.44S
MONROE         FAIR      37  31  77 CALM      30.45S
MT. CLEMENS    FAIR      35  28  76 CALM        N/A
PONTIAC        FAIR      41  28  60 SE5       30.45R
PORT HOPE        N/A     33  22  63 CALM      30.45R
PORT HURON     FAIR      30  25  80 CALM      30.48S
TRI CITIES     FAIR      37  32  82 NE6       30.45S WCI  32
MIDLAND        FAIR      37  28  69 CALM      30.45S
TROY           FAIR      42  28  56 E3        30.49R
SAGINAW HB     FAIR      37  28  70 SE3       30.44S
$$
MIZ043>046-050>051-056>058-064>065-071>073-077>080-210500-
SOUTHWEST LOWER MICHIGAN

CITY           SKY/WX    TMP DP  RH WIND       PRES   REMARKS
BATTLE CREEK   FAIR      42  25  50 CALM      30.45S
BENTON HARBOR  FAIR      34  20  56 CALM      30.46R
BIG RAPIDS     FAIR      36  18  48 CALM      30.45S
COLDWATER      FAIR      44  24  45 CALM      30.44S
FREMONT        FAIR      36   9  32 CALM      30.45S
HOLLAND        FAIR      38  20  48 CALM      30.46S
GRAND RAPIDS   FAIR      44  19  36 W6        30.45R
IONIA          FAIR      42  23  46 W5        30.44R
KALAMAZOO      FAIR      43  20  39 N3        30.45S
LUDINGTON      FAIR      30  23  77 CALM      30.45S
MARSHALL       FAIR      39  24  55 CALM      30.44S
MOUNT PLEASANT FAIR      42  28  56 CALM      30.44S
MUSKEGON       FAIR      34  19  54 CALM      30.46S
SOUTH HAVEN    FAIR      33  18  55 CALM      30.46S
$$
MIZ016>042-210500-
NORTHERN LOWER MICHIGAN

CITY           SKY/WX    TMP DP  RH WIND       PRES   REMARKS
ALPENA         FAIR      29  22  75 CALM      30.46S
BEAVER ISLAND  FAIR      34  26  70 CALM      30.45S
BELLAIRE       FAIR      28  23  81 CALM      30.47S
CADILLAC       FAIR      29  18  64 CALM      30.43S
CHARLEVOIX     FAIR      30  22  72 SE3       30.48F
FRANKFORT      FAIR      32  20  62 CALM      30.46R
GAYLORD        FAIR      30  20  66 CALM      30.43F
GRAYLING       FAIR      27  21  78 CALM      30.44S
HARBOR SPRINGS FAIR      32  19  57 CALM      30.46S
HOUGHTON LAKE  FAIR      30  20  66 CALM      30.45R
MANISTEE       FAIR      27  22  81 E3        30.45F
OSCODA         FAIR      30  20  67 CALM      30.46S
PELLSTON       FAIR      27  21  78 CALM      30.46S
ROGERS CITY    FAIR      34  16  47 SW5       30.46R WCI  30
TRAVERSE CITY  FAIR      32  24  72 CALM      30.45R
$$
MIZ007>008-015-210500-
EASTERN UPPER MICHIGAN

CITY           SKY/WX    TMP DP  RH WIND       PRES   REMARKS
KINROSS        FAIR      37  13  37 NW3       30.45R
MACKINAC ISLAN FAIR      36  20  52 W8        30.45S WCI  29
NEWBERRY       FAIR      32  19  60 SW3       30.42F
S. S. MARIE    FAIR      39  16  39 CALM      30.44R
MUNISING         N/A     32  24  72 S6        30.41F WCI  26
$$
MIZ004>006-011>014-085-210500-
CENTRAL UPPER MICHIGAN

CITY           SKY/WX    TMP DP  RH WIND       PRES   REMARKS
MANISTIQUE     FAIR      28  26  94 S8        30.43F WCI  19
ESCANABA       FAIR      30  24  78 CALM      30.43S
MENOMINEE      FAIR      42  17  36 SW6       30.43S
SAWYER-GWINN   FAIR      36  16  45 CALM      30.40F
$$
MIZ001>003-009>011-084-210500-
WESTERN UPPER MICHIGAN

CITY           SKY/WX    TMP DP  RH WIND       PRES   REMARKS
IRON MOUNTAIN  FAIR      35  21  56 CALM      30.37S
HOUGHTON       FAIR      36  13  38 E6        30.39S WCI  31
COPPER HARBOR    N/A     40  12  32 SW10      30.39F WCI  33
IRONWOOD       FAIR      32  22  66 CALM      30.42R
$$

ABBREVIATIONS USED IN REMARKS
   TC - TEMPERATURE IN CELSIUS
  WCI - WIND CHILL INDEX
   HX - HEAT INDEX
  VSB - VISIBILITY





USA.gov is the U.S. government's official web portal to all federal, state and local government web resources and services.